Location: Stanford
(52.2833°N, 2.4333°W)
Time: 23:23:03
(UTC+00:00)

Cosmos 1818 - Pass Details

Date: 22 January 2021
Orbit: 773 x 800 km, 65.0° (Epoch: 01 March)

Event Time Altitude Azimuth Distance (km) Brightness Sun altitude
Rises 19:04:43 0° 224° (SW) 3,273 7.5 -21.8°
Reaches altitude 10° 19:07:07 10° 225° (SW) 2,352 6.7 -22.2°
Maximum altitude 19:12:33 82° 313° (NW) 809 3.5 -23.0°
Enters shadow 19:14:22 44° 36° (NE) 1,103 4.0 -23.3°
